www.pogodaiklimat.ru
Время
и дата
11:54 26.05
12:54 26.05
13:54 26.05
14:54 26.05
15:54 26.05
16:54 26.05
17:54 26.05
18:54 26.05
19:54 26.05
20:54 26.05
21:54 26.05
22:54 26.05
23:54 26.05
00:54 27.05
01:54 27.05
02:54 27.05
03:54 27.05
04:54 27.05
05:54 27.05
06:54 27.05
07:54 27.05
08:54 27.05
09:54 27.05
10:54 27.05
11:54 27.05
12:54 27.05
13:54 27.05
14:54 27.05
15:54 27.05
16:54 27.05
17:54 27.05
18:54 27.05
19:54 27.05
20:54 27.05
21:54 27.05
22:54 27.05
23:54 27.05
00:54 28.05
01:54 28.05
02:54 28.05
03:12 28.05
03:54 28.05
04:54 28.05
05:54 28.05
06:54 28.05
07:54 28.05
08:37 28.05
08:54 28.05
Ветер
(напр.,м/с)
Видим. Явления Облачность Т
(С)
Тd
(С)
f
(%)
Тe
(С)
Тes
(С)
Комфортность P
(гПа)
Po
(гПа)
Тmin
(С)
Tmax
(С)
R
(мм)
R24
(мм)
S
(см)
ЮВ 2 16 км 2/2 600 м +18.9 +6.1 43 +20 +34 опасность
простуды
1020.0 1006.9
нст 2 16 км 2/2 900 м +21.1 +8.9 46 +22 +37 комфорт 1019.4 1006.5
нст 2 16 км 2/2 1200 м +22.2 +7.8 40 +23 +38 комфорт 1019.0 1005.9
штиль 0 16 км 2/2 1500 м +23.3 +7.8 37 +24 +42 комфорт 1018.5 1005.5
нст 2 16 км 2/2 1500 м +23.3 +8.3 38 +24 +35 комфорт 1018.3 1005.2 +15.6 +24.4
З 4 16 км 2/2 1500 м +23.3 +10.0 43 +25 +30 комфорт 1018.4 1005.2
СЗ 4 16 км 2/2 1500 м +22.2 +10.0 46 +24 +27 комфорт 1018.4 1005.5
СЗ 3 16 км ясно +19.4 +10.6 57 +21 +22 комфорт 1018.8 1005.9
Ю 3 16 км 2/2 1500 m
[Ci]
+17.2 +9.4 60 +17 +17 1019.4 1006.2
В 2 16 км 2/2 1500 m
[Ci]
+15.0 +8.9 67 +15 +15 1020.5 1007.5
штиль 0 16 км ясно +11.7 +8.3 80 +11 +11 1020.7 1007.5 +11.1 +23.9
штиль 0 16 км ясно +11.1 +7.2 77 +11 +11 1020.9 1007.9
В 2 16 км ясно +8.3 +6.7 90 +6 +6 1021.0 1007.9
штиль 0 16 км ясно +8.3 +6.1 86 +7 +7 1021.0 1007.9
В 2 16 км ясно +7.2 +5.6 90 +5 +5 1021.3 1008.2
штиль 0 16 км ясно +6.7 +5.0 89 +6 +6 1021.2 1008.2
ЮВ 2 16 км ясно +7.2 +6.1 93 +5 +5 1021.1 1007.9 +6.1 +12.8
штиль 0 16 км туман 8/2 450 m
[Ci]
+7.2 +6.1 93 +6 +6 1021.1 1008.2
штиль 0 16 км 8/2 450 m
[Ci]
+9.4 +7.2 86 +9 +9 1021.4 1008.5
штиль 0 16 км 8/2 540 m
[Ci]
+11.1 +8.3 83 +10 +11 1021.8 1008.5
штиль 0 16 км 8/5 360 m
[Ci]
+12.2 +8.3 77 +12 +14 1021.9 1008.9
нст 2 16 км 8/5 420 m
[Ci]
+14.4 +8.9 70 +14 +17 1021.6 1008.5
нст 3 16 км 8/2 480 m
[Ci]
+16.7 +9.4 62 +17 +23 1021.4 1008.2 +6.7 +17.2
нст 3 16 км 8/2 600 m
[Ci]
+18.3 +10.6 61 +19 +27 1020.8 1007.9
СЗ 4 16 км 8/2 750 m
[Ci]
+20.6 +11.1 54 +23 +31 комфорт 1020.0 1006.9
нст 2 16 км 8/2 900 m
[Ci]
+21.7 +11.1 51 +24 +37 комфорт 1019.4 1006.2
З 3 16 км 5/2 1200 m
[Ci]
+23.3 +11.7 48 +26 +37 жарко 1018.7 1005.5
СЗ 3 16 км 5/2 1200 m
[Ci]
+23.9 +12.2 48 +26 +36 жарко 1018.0 1004.9
СЗ 3 16 км 5/2 1500 m
[Ci]
+24.4 +12.2 46 +26 +34 жарко 1017.4 1004.5 +16.7 +24.4
С 3 16 км 2/2 1500 m
[Ci]
+24.4 +11.7 45 +26 +32 жарко 1017.0 1004.2
С 4 16 км 2/2 1800 m
[Ci]
+23.3 +11.7 48 +26 +28 жарко 1017.0 1004.2
СЗ 3 16 км 2/2 1800 m
[Ci]
+20.0 +12.2 61 +22 +23 комфорт 1017.3 1004.2
ЮЗ 3 16 км 5/5 1800 m
[Ci]
+17.2 +12.2 72 +17 +17 1017.6 1004.5
СВ 2 16 км 5/5 1800 m
[Ci]
+13.9 +10.6 80 +13 +13 1018.4 1005.5
штиль 0 16 км 5/2 1800 m
[Ci]
+12.8 +8.9 77 +12 +12 1018.6 1005.5 +12.8 +24.4
Ю 3 16 км ясно +13.3 +8.9 75 +12 +12 1018.6 1005.5
Ю 4 16 км 5/5 1800 м +12.2 +7.8 74 +10 +10 1018.8 1005.9
Ю 4 16 км ясно +11.7 +7.2 74 +10 +10 1019.0 1006.2
Ю 4 16 км ясно +11.1 +7.8 80 +9 +9 1019.4 1006.5
ЮВ 3 16 км 5/5 1470 м +10.6 +7.8 83 +9 +9 1019.7 1006.9
ЮВ 3 16 км 8/8 600 м +10.0 +7.8 86 +8 +8 1006.9
ЮВ 3 16 км 10/10 600 м +10.0 +7.8 86 +8 +8 1019.9 1006.9 +10.0 +13.9
ЮВ 2 16 км 10/10 600 м +10.6 +7.8 83 +9 +9 1020.2 1007.2
ЮВ 3 16 км 10/10 600 м +11.1 +7.8 80 +9 +9 1020.8 1007.9
ЮВ 2 16 км 10/10 750 м +12.2 +8.9 80 +11 +11 1021.0 1008.2
Ю 3 16 км 10/8 660 m
[Ac]
+13.9 +8.3 69 +13 +13 1021.6 1008.5
Ю 2 16 км 10/8 660 m
[Ac]
+14.4 +8.3 67 +14 +14 1008.5
ЮЗ 2 16 км 10/8 780 m
[Ac]
+15.0 +7.8 62 +15 +15 1021.6 1008.5
Местоположение метеостанции Mahlon Sweet Field: широта 44.1278 долгота -123.2206 высота над уровнем моря 108 м.
В архиве по умолчанию представлена погода в Эугене за последние 1-2 суток. Обновление информации о фактической погоде в базе происходит ежечасно! Архивные данные за месяц целиком и за предыдущие месяцы Вы можете получить, выбрав интересующий диапазон дат из раскрывающегося списка и нажав кнопку "Ввод!".
Внимание! Архив погоды МЕТАР в базе сайта по станциям, не включенным в климатический монитор, хранится не более 60 дней. Нет смысла пытаться выбрать более раннюю дату.
*Определитесь, кто Вы:
Внимание! Время в таблицах - местное (без учета летнего времени). Для получения всемирного времени необходимо вычесть поправку, которая равна -8 ч.
Смотрите также архив погоды в соседних городах и на ближайших метеорологических станциях:
Партнеры нашего сайта:      
Пояснения к столбцам:
  • Ветер - указаны скорость ветра в м/с - средняя за 10 мин, порывы в срок и между сроками (в фигурных скобках) и направление, откуда дует ветер: С - северный,
  • СВ - северо-восточный, В - восточный, ЮВ - юго-восточный, Ю - южный, ЮЗ - юго-западный, З - западный, СЗ - северо-западный.
  • Видимость - горизонтальная дальность видимости в метрах или километрах. При видимости от 1 до 10 км при отсутствии осадков обычно наблюдается дымка, при ухудшении видимости до 1 км и менее - туман. В сухую погоду видимость может ухудшаться дымом, пылью или мглою.
  • Явления - указаны атмосферные явления, наблюдавшиеся в срок или в последний час перед сроком; фигурными скобками обозначены явления, наблюдавшиеся между сроками (за 1-3 часа до срока); квадратными скобками обозначены град или гололедные отложения с указанием их диаметра в мм.
  • Облачность - указаны через наклонную черту общая и нижняя облачность в баллах и высота нижней границы облаков в метрах; квадратными скобками обозначены формы облаков: Ci - перистые, Cs - перисто-слоистые, Cc - перисто-кучевые, Ac - высококучевые, As - высокослоистые, Sc - слоисто-кучевые, Ns - слоисто-дождевые, Cu - кучевые, Cb - кучево-дождевые. Подробнее классификацию облаков см. в Атласе облаков (PDF).
  • T - Температура воздуха - температура, измеренная на высоте 2 м над землей.
  • Td - Температура точки росы - температура, при понижении до которой содержащийся в воздухе водяной пар достигнет насыщения.
  • f - Относительная влажность воздуха - влажноcть воздуха, измеренная на высоте 2 м над землей.
  • Te - Эффективная температура - температура, которую ощущает одетый по сезону человек в тени. Характеристика душности погоды. При расчете учитывается влияние влажности воздуха и скорости ветра на теплоощущения человека.
  • Tes - Эффективная температура на солнце - температура, которую ощущает человек, с поправкой на солнечный нагрев. Характеристика знойности погоды. Зависит от высоты солнца над горизонтом, облачности и скорости ветра. Ночью, в пасмурную погоду, а также при ветре 12 м/с и более поправка равна нулю.
  • P - Атмосферное давление - приведенное к уровню моря атмосферное давление.
  • Po - Атмосферное давление - измеренное на уровне метеостанции атмосферное давление.
  • Tmin - Минимальная температура - минимум температуры воздуха на высоте 2 м над землей.
  • Tmax - Максимальная температура - максимум температуры воздуха на высоте 2 м над землей.
  • R - Количество осадков - Количество выпавших осадков за период времени, мм. При наведении курсора мыши на число - период времени, за который выпало указанное количество осадков.
  • R24 - Количество осадков - Количество выпавших осадков за 24 часа, мм.
  • S - Снежный покров - Высота снежного покрова, см. При наведении курсора мыши на число - состояние снежного покрова и степень покрытия местности в баллах.